This is the latest recevied weather packets stored in our database for station/object DO6MJ-1. If no packets are shown the sender has not sent any weather packets the latest 10 day(s).
| Time | Temp. | Humidity | Pressure | Rain* | Wind** | Luminosity | Snow |
|---|---|---|---|---|---|---|---|
| 1787615047 | 11.67° C | 84% | 1011.5 hPa | 0 mm | - | - | - |
| 1787613847 | 11.67° C | 83% | 1011.7 hPa | 0 mm | - | - | - |
| 1787612646 | 12.22° C | 82% | 1011.9 hPa | 0 mm | - | - | - |
| 1787611446 | 12.22° C | 82% | 1012 hPa | 0 mm | - | - | - |
| 1787610246 | 12.78° C | 81% | 1012 hPa | 0 mm | - | - | - |
| 1787609045 | 12.78° C | 81% | 1012.1 hPa | 0 mm | - | - | - |
| 1787607845 | 13.33° C | 79% | 1012.3 hPa | 0 mm | - | - | - |
| 1787606645 | 13.33° C | 78% | 1012.3 hPa | 0 mm | - | - | - |
| 1787605445 | 13.89° C | 76% | 1012.3 hPa | 0 mm | - | - | - |
| 1787604244 | 14.44° C | 75% | 1012.3 hPa | 0 mm | - | - | - |
| 1787603044 | 14.44° C | 74% | 1012.2 hPa | 0 mm | - | - | - |
| 1787601844 | 15° C | 72% | 1012.2 hPa | 0 mm | - | - | - |
| 1787600643 | 15.56° C | 70% | 1012.2 hPa | 0 mm | - | - | - |
| 1787599443 | 15.56° C | 68% | 1012.3 hPa | 0 mm | - | - | - |
| 1787598243 | 16.67° C | 66% | 1012.3 hPa | 0 mm | - | - | - |
| 1787597043 | 17.22° C | 64% | 1012.2 hPa | 0 mm | - | - | - |
| 1787595842 | 18.33° C | 61% | 1012.2 hPa | 0 mm | - | - | - |
| 1787594642 | 18.89° C | 59% | 1012.2 hPa | 0 mm | - | - | - |
| 1787593442 | 20° C | 56% | 1012.2 hPa | 0 mm | - | - | - |
| 1787592242 | 21.11° C | 55% | 1012.4 hPa | 0 mm | - | - | - |
| 1787591041 | 21.11° C | 56% | 1012.7 hPa | 0 mm | - | - | - |
| 1787589841 | 20.56° C | 56% | 1012.8 hPa | 0 mm | - | - | - |
| 1787588641 | 20.56° C | 55% | 1013.2 hPa | 0 mm | - | - | - |
| 1787587440 | 20.56° C | 55% | 1013.4 hPa | 0 mm | - | - | - |
| 1787586240 | 20.56° C | 55% | 1013.8 hPa | 0 mm | - | - | - |
* Rain latest hour (hover to see other rain measurements)
** Current wind speed in m/s (hover to see current wind gust speed)